When you browse on this site, cookies collect data to enhance your experience and personalize the content and advertising you see.
Visit our Privacy Policy to learn more. By continuing to use the site, you agree to this use of cookies and data.
  • In Hungary
  • List of Countries
  • For 7 days
  • Water Temperature
  • Weather Map
  • News
  • Weather Widgets
  • user-avatar
    Login

    Hourly Weather Bolshaya Griva

    Today, 18 January, Saturday

    Time Temperature Precipitation Wind Pressure Humidity
    00:00 -18°C° 0.1 mm 6 mps 744 mmHg 90%
    01:00 -20°C° 0.1 mm 6 mps 746 mmHg 88%
    02:00 -22°C° 0.1 mm 6 mps 747 mmHg 87%
    03:00 -23°C° 0 mm 6 mps 749 mmHg 86%
    04:00 -25°C° 0 mm 5 mps 751 mmHg 86%
    05:00 -26°C° 0 mm 4 mps 752 mmHg 85%
    06:00 -26°C° 0 mm 4 mps 753 mmHg 87%
    07:00 -26°C° 0 mm 4 mps 754 mmHg 88%
    08:00 -26°C° 0 mm 3 mps 755 mmHg 90%
    09:00 -25°C° 0 mm 4 mps 755 mmHg 89%
    10:00 -24°C° 0 mm 4 mps 756 mmHg 89%
    11:00 -22°C° 0 mm 4 mps 756 mmHg 88%
    12:00 -20°C° 0 mm 4 mps 756 mmHg 87%
    13:00 -19°C° 0 mm 4 mps 756 mmHg 86%
    14:00 -18°C° 0 mm 4 mps 757 mmHg 85%
    15:00 -18°C° 0 mm 4 mps 757 mmHg 85%
    16:00 -19°C° 0 mm 5 mps 757 mmHg 86%
    17:00 -19°C° 0 mm 5 mps 757 mmHg 86%
    18:00 -19°C° 0 mm 5 mps 756 mmHg 85%
    19:00 -18°C° 0 mm 4 mps 755 mmHg 83%
    20:00 -18°C° 0 mm 4 mps 755 mmHg 81%
    21:00 -18°C° 0 mm 4 mps 754 mmHg 81%
    22:00 -20°C° 0 mm 5 mps 754 mmHg 80%
    23:00 -20°C° 0 mm 5 mps 753 mmHg 79%

    Tomorrow, 19 January, Sunday

    Time Temperature Precipitation Wind Pressure Humidity
    00:00 -20°C° 0 mm 5 mps 752 mmHg 82%
    01:00 -20°C° 0 mm 4 mps 751 mmHg 84%
    02:00 -20°C° 0 mm 4 mps 750 mmHg 86%
    03:00 -20°C° 0.2 mm 4 mps 750 mmHg 89%
    04:00 -19°C° 0.2 mm 3 mps 749 mmHg 92%
    05:00 -18°C° 0.2 mm 2 mps 749 mmHg 95%
    06:00 -18°C° 0.3 mm 2 mps 748 mmHg 96%
    07:00 -18°C° 0.3 mm 2 mps 748 mmHg 96%
    08:00 -18°C° 0.3 mm 2 mps 748 mmHg 96%
    09:00 -18°C° 0.1 mm 2 mps 748 mmHg 95%
    10:00 -18°C° 0.1 mm 3 mps 748 mmHg 94%
    11:00 -18°C° 0.1 mm 3 mps 749 mmHg 92%
    12:00 -18°C° 0 mm 3 mps 749 mmHg 93%
    13:00 -19°C° 0 mm 3 mps 749 mmHg 94%
    14:00 -19°C° 0 mm 3 mps 749 mmHg 95%
    15:00 -19°C° 0 mm 3 mps 750 mmHg 95%
    16:00 -21°C° 0 mm 3 mps 750 mmHg 95%
    17:00 -21°C° 0 mm 3 mps 751 mmHg 95%
    18:00 -21°C° 0 mm 3 mps 751 mmHg 94%
    19:00 -22°C° 0 mm 3 mps 752 mmHg 94%
    20:00 -22°C° 0 mm 3 mps 753 mmHg 94%
    21:00 -23°C° 0 mm 3 mps 753 mmHg 94%
    22:00 -24°C° 0 mm 3 mps 754 mmHg 95%
    23:00 -25°C° 0 mm 3 mps 755 mmHg 95%

    Day after tomorrow, 20 January, Monday

    Time Temperature Precipitation Wind Pressure Humidity
    00:00 -27°C° 0 mm 3 mps 755 mmHg 96%
    01:00 -29°C° 0 mm 3 mps 756 mmHg 96%
    02:00 -31°C° 0 mm 3 mps 756 mmHg 97%
    03:00 -32°C° 0 mm 3 mps 756 mmHg 95%
    04:00 -33°C° 0 mm 3 mps 757 mmHg 94%
    05:00 -33°C° 0 mm 3 mps 757 mmHg 93%
    06:00 -33°C° 0 mm 3 mps 757 mmHg 91%
    07:00 -33°C° 0 mm 3 mps 757 mmHg 90%
    08:00 -33°C° 0 mm 3 mps 757 mmHg 89%
    09:00 -32°C° 0 mm 3 mps 757 mmHg 90%
    10:00 -31°C° 0 mm 3 mps 757 mmHg 92%
    11:00 -30°C° 0 mm 3 mps 757 mmHg 93%
    12:00 -30°C° 0 mm 4 mps 756 mmHg 93%
    13:00 -29°C° 0 mm 4 mps 756 mmHg 93%
    14:00 -27°C° 0 mm 4 mps 755 mmHg 93%
    15:00 -27°C° 0 mm 4 mps 755 mmHg 93%
    16:00 -26°C° 0 mm 4 mps 755 mmHg 92%
    17:00 -26°C° 0 mm 4 mps 755 mmHg 91%
    18:00 -26°C° 0 mm 5 mps 754 mmHg 90%
    19:00 -25°C° 0 mm 5 mps 754 mmHg 88%
    20:00 -25°C° 0 mm 5 mps 753 mmHg 86%
    21:00 -24°C° 0 mm 5 mps 753 mmHg 88%
    22:00 -24°C° 0 mm 5 mps 753 mmHg 89%
    23:00 -24°C° 0 mm 5 mps 752 mmHg 91%

    21 January, Tuesday

    Time Temperature Precipitation Wind Pressure Humidity
    00:00 -24°C° 0.1 mm 4 mps 752 mmHg 92%
    01:00 -24°C° 0.1 mm 4 mps 752 mmHg 93%
    02:00 -24°C° 0.1 mm 4 mps 751 mmHg 94%
    03:00 -25°C° 0 mm 4 mps 752 mmHg 94%
    04:00 -24°C° 0 mm 3 mps 752 mmHg 95%
    05:00 -25°C° 0 mm 3 mps 752 mmHg 95%
    06:00 -26°C° 0 mm 3 mps 752 mmHg 96%
    07:00 -27°C° 0 mm 3 mps 753 mmHg 97%
    08:00 -27°C° 0 mm 2 mps 753 mmHg 98%
    09:00 -26°C° 0 mm 2 mps 754 mmHg 97%
    10:00 -26°C° 0 mm 2 mps 754 mmHg 97%
    11:00 -26°C° 0 mm 2 mps 755 mmHg 97%
    12:00 -26°C° 0 mm 2 mps 755 mmHg 96%
    13:00 -27°C° 0 mm 2 mps 756 mmHg 96%
    14:00 -25°C° 0 mm 1 mps 756 mmHg 96%
    15:00 -27°C° 0 mm 1 mps 757 mmHg 96%
    16:00 -29°C° 0 mm 1 mps 757 mmHg 96%
    17:00 -31°C° 0 mm 1 mps 758 mmHg 97%
    18:00 -32°C° 0 mm 1 mps 759 mmHg 96%
    19:00 -31°C° 0 mm 0 mps 759 mmHg 96%
    20:00 -31°C° 0 mm 0 mps 759 mmHg 95%
    21:00 -32°C° 0 mm 1 mps 759 mmHg 94%
    22:00 -31°C° 0 mm 1 mps 760 mmHg 93%
    23:00 -34°C° 0 mm 2 mps 760 mmHg 92%

    22 January, Wednesday

    Time Temperature Precipitation Wind Pressure Humidity
    00:00 -32°C° 0 mm 2 mps 760 mmHg 93%
    01:00 -32°C° 0 mm 2 mps 760 mmHg 94%
    02:00 -31°C° 0 mm 2 mps 760 mmHg 94%
    03:00 -31°C° 0 mm 2 mps 760 mmHg 94%
    04:00 -31°C° 0 mm 2 mps 759 mmHg 94%
    05:00 -32°C° 0 mm 3 mps 759 mmHg 94%
    06:00 -32°C° 0 mm 3 mps 759 mmHg 94%
    07:00 -32°C° 0 mm 3 mps 759 mmHg 94%
    08:00 -32°C° 0 mm 3 mps 759 mmHg 95%
    09:00 -31°C° 0 mm 3 mps 758 mmHg 94%
    10:00 -30°C° 0 mm 3 mps 758 mmHg 94%
    11:00 -29°C° 0 mm 3 mps 758 mmHg 93%
    12:00 -27°C° 0 mm 3 mps 757 mmHg 93%
    13:00 -26°C° 0 mm 3 mps 757 mmHg 93%
    14:00 -26°C° 0 mm 3 mps 756 mmHg 92%
    15:00 -26°C° 0 mm 3 mps 755 mmHg 93%
    16:00 -29°C° 0 mm 4 mps 755 mmHg 93%
    17:00 -29°C° 0 mm 4 mps 754 mmHg 94%
    18:00 -29°C° 0 mm 4 mps 754 mmHg 94%
    19:00 -26°C° 0 mm 3 mps 753 mmHg 95%
    20:00 -26°C° 0 mm 3 mps 753 mmHg 96%
    21:00 -25°C° 0 mm 3 mps 752 mmHg 96%
    22:00 -25°C° 0 mm 3 mps 752 mmHg 96%
    23:00 -24°C° 0 mm 3 mps 751 mmHg 97%

    23 January, Thursday

    Time Temperature Precipitation Wind Pressure Humidity
    00:00 -23°C° 0 mm 3 mps 751 mmHg 96%
    01:00 -22°C° 0 mm 3 mps 750 mmHg 95%
    02:00 -21°C° 0 mm 3 mps 750 mmHg 95%
    03:00 -18°C° 0 mm 3 mps 749 mmHg 94%
    04:00 -18°C° 0 mm 4 mps 749 mmHg 93%
    05:00 -16°C° 0 mm 4 mps 749 mmHg 92%
    06:00 -15°C° 0 mm 4 mps 748 mmHg 92%
    07:00 -15°C° 0 mm 4 mps 748 mmHg 91%
    08:00 -14°C° 0 mm 4 mps 747 mmHg 91%
    09:00 -12°C° 0 mm 4 mps 747 mmHg 90%
    10:00 -13°C° 0 mm 5 mps 747 mmHg 90%
    11:00 -12°C° 0 mm 5 mps 746 mmHg 89%
    12:00 -12°C° 0.1 mm 5 mps 746 mmHg 89%
    13:00 -11°C° 0.1 mm 5 mps 746 mmHg 90%
    14:00 -11°C° 0.1 mm 5 mps 745 mmHg 90%
    15:00 -11°C° 0.1 mm 5 mps 745 mmHg 90%
    16:00 -10°C° 0.1 mm 5 mps 745 mmHg 91%
    17:00 -10°C° 0.1 mm 5 mps 744 mmHg 91%
    18:00 -10°C° 0.1 mm 6 mps 744 mmHg 91%
    19:00 -9°C° 0.1 mm 6 mps 743 mmHg 90%
    20:00 -9°C° 0.1 mm 6 mps 743 mmHg 90%
    21:00 -8°C° 0.1 mm 6 mps 742 mmHg 90%
    22:00 -8°C° 0.1 mm 6 mps 742 mmHg 89%
    23:00 -8°C° 0.1 mm 6 mps 741 mmHg 89%
    Show more